Regional Weather Roundup
Issued by NWS

Home | Current Version | Previous Version | Text Only | Print | Product List | Glossary On
Versions: 1 2 3 4 5 6 7 8 9 10 11 12 13 14 15 16 17 18 19 20 21 22 23 24 25 26 27 28 29 30 31 32 33 34 35 36 37 38 39 40 41 42 43 44 45 46 47 48 49 50
000
ASPQ40 PGUM 301414
RWRPQ
WEATHER ROUNDUP FOR THE MARIANAS AND MICRONESIA
NATIONAL WEATHER SERVICE TIYAN GU
1200 AM CHST FRI JUL 31 2015

GUZ001>004-301500-
MARIANA ISLANDS-

CITY           SKY/WX    TMP DP  RH WIND       PRES   REMARKS
GUAM AIRPORT   PTCLDY    79  73  83 NE3       29.85F
ANDERSEN AFB   NOT AVBL
ROTA AIRPORT   NOT AVBL
TINIAN AP      NOT AVBL
SAIPAN AP      NOT AVBL

$$

PMZ161-301500-
REPUBLIC OF PALAU-

CITY           SKY/WX    TMP DP  RH WIND       PRES   REMARKS
KOROR AP       MOCLDY    81  77  89 W5        29.81R
KOROR WSO      MOCLDY    82  75  78 W5        29.83S

$$

PMZ171>174-301500-
FEDERATED STATES OF MICRONESIA-

CITY           SKY/WX    TMP DP  RH WIND       PRES   REMARKS
YAP AIRPORT    MOCLDY    81  77  89 CALM      29.80F
CHUUK AP       CLOUDY    82  77  83 W10       29.79F HX  91
POHNPEI AP     NOT AVBL
POHNPEI WSO    CLOUDY    81  79  94 SW3       29.77F
KOSRAE AP      NOT AVBL

$$

PMZ181-301500-
REPUBLIC OF THE MARSHALL ISLANDS-

CITY           SKY/WX    TMP DP  RH WIND       PRES   REMARKS
KWAJALEIN AP   CLEAR     81  77  89 E6        29.71F
MAJURO AP      NOT AVBL
MAJURO WSO     CLOUDY    82  77  83 NE7       29.69F HX  91

$$




USA.gov is the U.S. government's official web portal to all federal, state and local government web resources and services.